This demonstration page uses our WeatherBlox Daily Observations layout. Learn more.

Left ArrowRight Arrow

Hourly Observations for March 28, 2020

Temp ( °F °C ) Dew Point ( °F °C ) Humidity (%) Winds ( mph kmh ) Pressure ( in mb ) Visibility ( mi km ) Precip ( " mm )
12:53 am 00:53 Cloudy 52 11.1 41 5 66 66 Calm 30.14 1021 10 16 0.00 0.00
1:53 am 01:53 Cloudy 51 10.6 42 5.6 71 71 Calm 30.15 1021 10 16 0.00 0.00
2:53 am 02:53 Cloudy 52 11.1 40 4.4 64 64 Calm 30.15 1021 10 16 0.00 0.00
3:53 am 03:53 Cloudy 51 10.6 41 5 69 69 S 6 9 30.16 1021 10 16 0.00 0.00
4:53 am 04:53 Cloudy 50 10 42 5.6 74 74 Calm 30.16 1021 10 16 0.00 0.00
5:53 am 05:53 Cloudy 49 9.4 42 5.6 77 77 Calm 30.16 1021 10 16 0.00 0.00
6:53 am 06:53 Cloudy 49 9.4 42 5.6 77 77 S 6 9 30.16 1022 10 16 0.00 0.00
7:53 am 07:53 Cloudy 49 9.4 42 5.6 77 77 SW 6 9 30.18 1022 10 16 0.00 0.00
8:53 am 08:53 Cloudy 49 9.4 42 5.6 77 77 SSW 6 9 30.19 1022 10 16 0.00 0.00
9:48 am 09:48 Mostly Cloudy 52 11 43 6 72 72 S 10 17 30.21 1023 10 16 0.00 0.00
9:53 am 09:53 Cloudy 51 10.6 42 5.6 71 71 S 8 13 30.19 1023 10 16 0.00 0.00
10:16 am 10:16 Mostly Cloudy 51 10.6 43 6.1 74 74 SSE 9 15 30.21 1023 10 16 0.00 0.00
10:53 am 10:53 Cloudy 52 11.1 43 6.1 72 72 SSW 7 11 30.19 1022 9 14 0.00 0.00
11:53 am 11:53 Cloudy 53 11.7 43 6.1 69 69 VRB 3 6 30.18 1022 10 16 0.00 0.00
12:53 pm 12:53 Cloudy 54 12.2 42 5.6 64 64 Calm 30.16 1022 10 16 0.00 0.00
1:53 pm 13:53 Cloudy 53 11.7 44 6.7 72 72 E 6 9 30.15 1021 9 14 0.01 0.25
2:53 pm 14:53 Cloudy 55 12.8 43 6.1 64 64 S 13 20 30.12 1020 10 16 0.00 0.00
3:53 pm 15:53 Cloudy with Light Rain 54 12.2 44 6.7 69 69 SSE 5 7 30.11 1020 9 14 0.00 0.00
4:53 pm 16:53 Cloudy 54 12.2 43 6.1 67 67 S 9 15 30.10 1019 10 16 0.01 0.25
5:53 pm 17:53 Cloudy with Light Rain 52 11.1 44 6.7 75 75 SW 5 7 30.09 1019 9 14 0.00 0.00
6:53 pm 18:53 Cloudy 51 10.6 45 7.2 80 80 S 7 11 30.09 1019 9 14 0.00 0.00
7:53 pm 19:53 Cloudy 50 10 46 7.8 86 86 S 6 9 30.09 1019 10 16 0.00 0.00
8:45 pm 20:45 Cloudy with Light Rain 50 10 46 7.8 86 86 S 6 9 30.10 1019 8 13 0.01 0.25
8:53 pm 20:53 Cloudy with Light Rain 50 10 46 7.8 86 86 S 6 9 30.09 1019 7 11 0.02 0.51
9:53 pm 21:53 Cloudy with Light Rain 49 9.4 46 7.8 90 90 SSE 5 7 30.10 1019 6 10 0.05 1.27
10:03 pm 22:03 Cloudy with Light Rain 49 9.4 46 7.8 90 90 S 3 6 30.12 1020 8 13 0.00 0.00
10:26 pm 22:26 Cloudy with Light Rain 49 9.4 46 7.8 90 90 Calm 30.12 1020 7 11 0.01 0.25
10:39 pm 22:39 Cloudy with Light Rain 49 9.4 46 7.8 90 90 SSE 6 9 30.11 1020 8 13 0.01 0.25
10:53 pm 22:53 Cloudy with Light Rain 49 9.4 46 7.8 90 90 SE 3 6 30.10 1019 6 10 0.02 0.51
11:53 pm 23:53 Cloudy with Light Rain 48 8.9 46 7.8 93 93 Calm 30.09 1019 6 10 0.06 1.52

Powered by AerisWeather